,,,PA_Meas_PMT16A,,PR_Meas_QMR101_102,,RH_Meas_QMH101,,SR_Meas_QMS101,,TA_Meas_QMH101,,GenWind,,GenWind,
date,time,status,PA,status,PR,status,RH,status,SR,status,TA,status,DirAvg,status,SpdAvg,
2011-04-03, 00:00:04,VALID,1003.31,VALID,0,VALID,104,VALID,0,VALID,27.209,VALID,92,VALID,0.256641,
2011-04-03, 00:01:05,VALID,1003.29,VALID,0,VALID,104,VALID,0,VALID,27.1875,VALID,91,VALID,0.817578,
2011-04-03, 00:02:05,VALID,1003.28,VALID,0,VALID,104,VALID,0,VALID,27.209,VALID,81,VALID,0.452734,
2011-04-03, 00:03:04,VALID,1003.29,VALID,0,INVALID,109.734,VALID,0,VALID,27.17,VALID,81,VALID,0.420703,
2011-04-03, 00:04:05,VALID,1003.32,VALID,0,INVALID,111.618,VALID,0,VALID,27.129,VALID,81,VALID,0.144922,
2011-04-03, 00:05:05,VALID,1003.3,VALID,0,INVALID,113.838,VALID,0,VALID,27.1331,VALID,81,VALID,0.154297,
2011-04-03, 00:06:05,VALID,1003.31,VALID,0,INVALID,117.256,VALID,0,VALID,27.0921,VALID,77,VALID,0.695703,
2011-04-03, 00:07:05,VALID,1003.31,VALID,0,INVALID,127.952,VALID,0,VALID,27.0511,VALID,78,VALID,0.175391,
2011-04-03, 00:08:05,VALID,1003.3,VALID,0,INVALID,129.386,VALID,0,VALID,27.0531,VALID,79,VALID,0.3375,
2011-04-03, 00:09:05,VALID,1003.32,VALID,0,INVALID,142.065,VALID,0,VALID,27.0121,VALID,95,VALID,0.606641,
2011-04-03, 00:10:05,VALID,1003.34,VALID,0,INVALID,147.901,VALID,0,VALID,27.0531,VALID,104,VALID,0.711328,
2011-04-03, 00:11:05,VALID,1003.33,VALID,0,INVALID,144.003,VALID,0,VALID,27.0101,VALID,103,VALID,0.759766,
2011-04-03, 00:12:05,VALID,1003.35,VALID,0,INVALID,140.089,VALID,0,VALID,27.0531,VALID,103,VALID,0.661719,
2011-04-03, 00:13:05,VALID,1003.36,VALID,0,INVALID,140.112,VALID,0,VALID,27.0726,VALID,103,VALID,0.411328,
2011-04-03, 00:14:05,VALID,1003.34,VALID,0,INVALID,149.656,VALID,0,VALID,27.0531,VALID,103,VALID,0.409375,
2011-04-03, 00:15:05,VALID,1003.32,VALID,0,INVALID,150.876,VALID,0,VALID,27.0316,VALID,103,VALID,0.289063,
2011-04-03, 00:16:05,VALID,1003.34,VALID,0,INVALID,148.588,VALID,0,VALID,27.0552,VALID,102,VALID,0.404687,
2011-04-03, 00:17:05,VALID,1003.33,VALID,0,INVALID,149.625,VALID,0,VALID,27.0121,VALID,79,VALID,0.647656,
2011-04-03, 00:18:05,VALID,1003.33,VALID,0,INVALID,153.348,VALID,0,VALID,27.0142,VALID,78,VALID,0.328125,
2011-04-03, 00:19:05,VALID,1003.31,VALID,0,INVALID,163.426,VALID,0,VALID,26.9752,VALID,78,VALID,0.0613281,
2011-04-03, 00:20:05,VALID,1003.28,VALID,0,INVALID,163.51,VALID,0,VALID,26.9342,VALID,78,VALID,0.370313,
2011-04-03, 00:21:05,VALID,1003.28,VALID,0,INVALID,163.495,VALID,0,VALID,26.8563,VALID,78,VALID,0.240625,
2011-04-03, 00:22:05,VALID,1003.24,VALID,0,INVALID,163.495,VALID,0,VALID,26.8388,VALID,78,VALID,0.357422,
2011-04-03, 00:23:05,VALID,1003.22,VALID,0,INVALID,163.502,VALID,0,VALID,26.8193,VALID,37,VALID,0.560156,
2011-04-03, 00:24:05,VALID,1003.23,VALID,0,INVALID,163.517,VALID,0,VALID,26.7804,VALID,32,VALID,0.246094,
2011-04-03, 00:25:05,VALID,1003.23,VALID,0,INVALID,163.51,VALID,0,VALID,26.7804,VALID,32,VALID,0.469531,
2011-04-03, 00:26:05,VALID,1003.2,VALID,0,INVALID,163.548,VALID,0,VALID,26.7609,VALID,29,VALID,0.626172,
2011-04-03, 00:27:05,VALID,1003.22,VALID,0,INVALID,163.51,VALID,0,VALID,26.7394,VALID,27,VALID,0.701172,
2011-04-03, 00:28:05,VALID,1003.2,VALID,0,INVALID,163.487,VALID,0,VALID,26.7414,VALID,13,VALID,0.783984,
2011-04-03, 00:29:05,VALID,1003.23,VALID,0,INVALID,163.525,VALID,0,VALID,26.7199,VALID,13,VALID,0.452344,
2011-04-03, 00:30:05,VALID,1003.26,VALID,0,INVALID,163.495,VALID,0,VALID,26.7414,VALID,13,VALID,0.517187,
2011-04-03, 00:31:05,VALID,1003.22,VALID,0,INVALID,163.51,VALID,0,VALID,26.6809,VALID,13,VALID,0.566797,
2011-04-03, 00:32:05,VALID,1003.21,VALID,0,INVALID,163.533,VALID,0,VALID,26.6635,VALID,14,VALID,0.548047,
2011-04-03, 00:33:05,VALID,1003.18,VALID,0,INVALID,163.487,VALID,0,VALID,26.6245,VALID,15,VALID,0.403906,
2011-04-03, 00:34:05,VALID,1003.19,VALID,0,INVALID,163.517,VALID,0,VALID,26.605,VALID,15,VALID,0.340234,
2011-04-03, 00:35:05,VALID,1003.2,VALID,0,INVALID,163.556,VALID,0,VALID,26.5661,VALID,15,VALID,0.104297,
2011-04-03, 00:36:05,VALID,1003.21,VALID,0,INVALID,163.548,VALID,0,VALID,26.5466,VALID,15,VALID,0.00585938,
2011-04-03, 00:37:05,VALID,1003.23,VALID,0,INVALID,163.556,VALID,0,VALID,26.4861,VALID,15,VALID,0.204297,
2011-04-03, 00:38:05,VALID,1003.18,VALID,0,INVALID,163.548,VALID,0,VALID,26.4492,VALID,15,VALID,0.217969,
2011-04-03, 00:39:05,VALID,1003.15,VALID,0,INVALID,163.556,VALID,0,VALID,26.4102,VALID,25,VALID,0.230469,
2011-04-03, 00:40:05,VALID,1003.13,VALID,0,INVALID,163.556,VALID,0,VALID,26.3498,VALID,28,VALID,0.254687,
2011-04-03, 00:41:05,VALID,1003.1,VALID,0,INVALID,163.556,VALID,0,VALID,26.3108,VALID,28,VALID,0.250391,
2011-04-03, 00:42:05,VALID,1003.11,VALID,0,INVALID,163.571,VALID,0,VALID,26.3128,VALID,27,VALID,0.664453,
2011-04-03, 00:43:05,VALID,1003.11,VALID,0,INVALID,163.548,VALID,0,VALID,26.2524,VALID,27,VALID,0.482031,
2011-04-03, 00:44:05,VALID,1003.03,VALID,0,INVALID,163.571,VALID,0,VALID,26.2134,VALID,27,VALID,0.358984,
2011-04-03, 00:45:05,VALID,1003.03,VALID,0,INVALID,163.586,VALID,0,VALID,26.155,VALID,27,VALID,0.4125,
2011-04-03, 00:46:05,VALID,1003,VALID,0,INVALID,163.571,VALID,0,VALID,26.157,VALID,27,VALID,0.4,
2011-04-03, 00:47:05,VALID,1002.98,VALID,0,INVALID,163.571,VALID,0,VALID,26.116,VALID,27,VALID,0.362891,
2011-04-03, 00:48:05,VALID,1002.94,VALID,0,INVALID,163.578,VALID,0,VALID,26.0966,VALID,27,VALID,0.275,
2011-04-03, 00:49:05,VALID,1002.91,VALID,0,INVALID,163.586,VALID,0,VALID,26.0966,VALID,27,VALID,0.255078,
2011-04-03, 00:50:05,VALID,1002.89,VALID,0,INVALID,163.571,VALID,0,VALID,26.0966,VALID,53,VALID,0.585156,
2011-04-03, 00:51:05,VALID,1002.89,VALID,0,INVALID,163.563,VALID,0,VALID,26.0771,VALID,80,VALID,0.342578,
2011-04-03, 00:52:05,VALID,1002.88,VALID,0,INVALID,163.594,VALID,0,VALID,26.0576,VALID,81,VALID,0.663281,
2011-04-03, 00:53:05,VALID,1002.87,VALID,0,INVALID,163.594,VALID,0,VALID,26.0966,VALID,72,VALID,0.476563,
2011-04-03, 00:54:05,VALID,1002.85,VALID,0,INVALID,163.571,VALID,0,VALID,26.1375,VALID,82,VALID,0.695313,
2011-04-03, 00:55:05,VALID,1002.81,VALID,0,INVALID,163.571,VALID,0,VALID,26.116,VALID,82,VALID,0.276953,
2011-04-03, 00:56:05,VALID,1002.77,VALID,0,INVALID,163.571,VALID,0,VALID,26.1765,VALID,81,VALID,0.247656,
2011-04-03, 00:57:05,VALID,1002.75,VALID,0,INVALID,163.586,VALID,0,VALID,26.1745,VALID,82,VALID,0.682813,
2011-04-03, 00:58:05,VALID,1002.76,VALID,0,INVALID,163.548,VALID,0,VALID,26.2719,VALID,53,VALID,0.394531,
2011-04-03, 00:59:05,VALID,1002.73,VALID,0,INVALID,163.578,VALID,0,VALID,26.3323,VALID,90,VALID,0.351953,
2011-04-03, 01:00:05,VALID,1002.72,VALID,0,INVALID,163.571,VALID,0,VALID,26.3303,VALID,90,VALID,0.286328,
2011-04-03, 01:01:05,VALID,1002.73,VALID,0,INVALID,163.533,VALID,0,VALID,26.3303,VALID,88,VALID,0.392578,
2011-04-03, 01:02:05,VALID,1002.67,VALID,0,INVALID,163.548,VALID,0,VALID,26.3693,VALID,79,VALID,0.319531,
2011-04-03, 01:03:05,VALID,1002.64,VALID,0,INVALID,163.563,VALID,0.100563,VALID,26.3673,VALID,79,VALID,0.0667969,
2011-04-03, 01:04:05,VALID,1002.6,VALID,0,INVALID,163.556,VALID,0,VALID,26.3887,VALID,79,VALID,0,
2011-04-03, 01:05:05,VALID,1002.61,VALID,0,INVALID,163.548,VALID,0.100563,VALID,26.3673,VALID,79,VALID,0.367969,
2011-04-03, 01:06:05,VALID,1002.57,VALID,0,INVALID,163.548,VALID,0.100563,VALID,26.3693,VALID,79,VALID,0.396094,
2011-04-03, 01:07:05,VALID,1002.55,VALID,0,INVALID,163.563,VALID,0,VALID,26.3108,VALID,79,VALID,0.24375,
2011-04-03, 01:08:05,VALID,1002.5,VALID,0,INVALID,163.563,VALID,0.100563,VALID,26.2913,VALID,79,VALID,0.322266,
2011-04-03, 01:09:05,VALID,1002.46,VALID,0,INVALID,163.586,VALID,0.100563,VALID,26.2329,VALID,79,VALID,0.458594,
2011-04-03, 01:10:05,VALID,1002.4,VALID,0,INVALID,163.563,VALID,0,VALID,26.194,VALID,52,VALID,0.403906,
2011-04-03, 01:11:05,VALID,1002.38,VALID,0,INVALID,163.556,VALID,0,VALID,26.1765,VALID,52,VALID,0.288281,
2011-04-03, 01:12:05,VALID,1002.37,VALID,0,INVALID,163.594,VALID,0,VALID,26.1355,VALID,52,VALID,0.459375,
2011-04-03, 01:13:05,VALID,1002.32,VALID,0,INVALID,163.563,VALID,0,VALID,26.116,VALID,78,VALID,0.417578,
2011-04-03, 01:14:05,VALID,1002.33,VALID,0,INVALID,163.586,VALID,0,VALID,26.118,VALID,74,VALID,0.402734,
2011-04-03, 01:15:05,VALID,1002.31,VALID,0,INVALID,163.563,VALID,0,VALID,26.118,VALID,74,VALID,0.195703,
2011-04-03, 01:16:05,VALID,1002.32,VALID,0,INVALID,163.563,VALID,0,VALID,26.0966,VALID,96,VALID,0.471875,
2011-04-03, 01:17:05,VALID,1002.3,VALID,0,INVALID,163.586,VALID,0,VALID,26.0771,VALID,95,VALID,0.335938,
2011-04-03, 01:18:05,VALID,1002.3,VALID,0,INVALID,163.578,VALID,0,VALID,26.0771,VALID,95,VALID,0.348047,
2011-04-03, 01:19:05,VALID,1002.29,VALID,0,INVALID,163.586,VALID,0.100563,VALID,26.0576,VALID,95,VALID,0.301172,
2011-04-03, 01:20:05,VALID,1002.27,VALID,0,INVALID,163.578,VALID,0,VALID,26.0576,VALID,77,VALID,0.318359,
2011-04-03, 01:21:05,VALID,1002.29,VALID,0,INVALID,163.586,VALID,0,VALID,26.0596,VALID,76,VALID,0.306641,
2011-04-03, 01:22:05,VALID,1002.3,VALID,0,INVALID,163.594,VALID,0,VALID,26.0381,VALID,40,VALID,0.545313,
2011-04-03, 01:23:05,VALID,1002.3,VALID,0,INVALID,163.578,VALID,0,VALID,26.0187,VALID,40,VALID,0.277734,
2011-04-03, 01:24:05,VALID,1002.32,VALID,0,INVALID,163.563,VALID,0,VALID,26.0187,VALID,40,VALID,0.203125,
2011-04-03, 01:25:05,VALID,1002.3,VALID,0,INVALID,163.571,VALID,0,VALID,26.0187,VALID,40,VALID,0.164063,
2011-04-03, 01:26:05,VALID,1002.27,VALID,0,INVALID,163.578,VALID,0,VALID,26.0401,VALID,40,VALID,0.29375,
2011-04-03, 01:27:05,VALID,1002.25,VALID,0,INVALID,163.578,VALID,0.100563,VALID,26.0381,VALID,40,VALID,0.284375,
2011-04-03, 01:28:05,VALID,1002.22,VALID,0,INVALID,163.571,VALID,0,VALID,26.0576,VALID,45,VALID,0.422266,
2011-04-03, 01:29:05,VALID,1002.24,VALID,0,INVALID,163.563,VALID,0,VALID,26.0791,VALID,69,VALID,0.0792969,
2011-04-03, 01:30:05,VALID,1002.24,VALID,0,INVALID,163.571,VALID,0,VALID,26.0791,VALID,52,VALID,0.671484,
2011-04-03, 01:31:05,VALID,1002.27,VALID,0,INVALID,163.556,VALID,0,VALID,26.0401,VALID,42,VALID,0.521484,
2011-04-03, 01:32:05,VALID,1002.26,VALID,0,INVALID,163.586,VALID,0,VALID,26.0187,VALID,42,VALID,0.349219,
2011-04-03, 01:33:05,VALID,1002.27,VALID,0,INVALID,163.586,VALID,0,VALID,26.0401,VALID,42,VALID,0.471484,
2011-04-03, 01:34:05,VALID,1002.24,VALID,0,INVALID,163.578,VALID,0.100563,VALID,26.0596,VALID,38,VALID,0.472656,
2011-04-03, 01:35:05,VALID,1002.21,VALID,0,INVALID,163.571,VALID,0,VALID,26.0771,VALID,16,VALID,1.21367,
2011-04-03, 01:36:05,VALID,1002.18,VALID,0,INVALID,163.586,VALID,0,VALID,26.1765,VALID,26,VALID,0.362109,
2011-04-03, 01:37:05,VALID,1002.14,VALID,0,INVALID,163.571,VALID,0,VALID,26.1745,VALID,21,VALID,0.755859,
2011-04-03, 01:38:05,VALID,1002.15,VALID,0,INVALID,163.54,VALID,0,VALID,26.194,VALID,19,VALID,0.404687,
2011-04-03, 01:39:05,VALID,1002.14,VALID,0,INVALID,163.594,VALID,0,VALID,26.2349,VALID,19,VALID,0.244922,
2011-04-03, 01:40:05,VALID,1002.16,VALID,0,INVALID,163.533,VALID,0,VALID,26.194,VALID,31,VALID,0.298047,
2011-04-03, 01:41:05,VALID,1002.19,VALID,0,INVALID,163.586,VALID,0,VALID,26.194,VALID,31,VALID,0.222656,
2011-04-03, 01:42:05,VALID,1002.18,VALID,0,INVALID,163.556,VALID,0,VALID,26.1959,VALID,31,VALID,0.126953,
2011-04-03, 01:43:05,VALID,1002.18,VALID,0,INVALID,163.586,VALID,0,VALID,26.1765,VALID,31,VALID,0.0257812,
2011-04-03, 01:44:05,VALID,1002.17,VALID,0,INVALID,163.563,VALID,0,VALID,26.116,VALID,31,VALID,0.180469,
2011-04-03, 01:45:05,VALID,1002.18,VALID,0,INVALID,163.586,VALID,0,VALID,26.1375,VALID,31,VALID,0.1875,
2011-04-03, 01:46:05,VALID,1002.16,VALID,0,INVALID,163.571,VALID,0,VALID,26.118,VALID,31,VALID,0.585547,
2011-04-03, 01:47:05,VALID,1002.15,VALID,0,INVALID,163.571,VALID,0,VALID,26.0791,VALID,31,VALID,0.285937,
2011-04-03, 01:48:05,VALID,1002.14,VALID,0,INVALID,163.571,VALID,0,VALID,26.0381,VALID,31,VALID,0.314453,
2011-04-03, 01:49:05,VALID,1002.13,VALID,0,INVALID,163.578,VALID,0,VALID,26.0206,VALID,31,VALID,0.430078,
2011-04-03, 01:50:05,VALID,1002.12,VALID,0,INVALID,163.578,VALID,0,VALID,25.9602,VALID,30,VALID,0.404687,
2011-04-03, 01:51:05,VALID,1002.16,VALID,0,INVALID,163.594,VALID,0,VALID,25.9622,VALID,346,VALID,0.766797,
2011-04-03, 01:52:05,VALID,1002.15,VALID,0,INVALID,163.594,VALID,0,VALID,26.0012,VALID,22,VALID,0.683594,
2011-04-03, 01:53:05,VALID,1002.15,VALID,0,INVALID,163.571,VALID,0,VALID,26.0187,VALID,25,VALID,0.210156,
2011-04-03, 01:54:05,VALID,1002.16,VALID,0,INVALID,163.578,VALID,0,VALID,26.0187,VALID,25,VALID,0.0574219,
2011-04-03, 01:55:05,VALID,1002.18,VALID,0,INVALID,163.563,VALID,0,VALID,25.9992,VALID,25,VALID,0.0621094,
2011-04-03, 01:56:05,VALID,1002.17,VALID,0,INVALID,163.556,VALID,0,VALID,25.9992,VALID,25,VALID,0,
2011-04-03, 01:57:05,VALID,1002.19,VALID,0,INVALID,163.563,VALID,0,VALID,25.9602,VALID,25,VALID,0.171484,
2011-04-03, 01:58:05,VALID,1002.21,VALID,0,INVALID,163.586,VALID,0,VALID,25.9408,VALID,25,VALID,0,
2011-04-03, 01:59:05,VALID,1002.21,VALID,0,INVALID,163.594,VALID,0,VALID,25.9018,VALID,25,VALID,0,
2011-04-03, 02:00:05,VALID,1002.2,VALID,0,INVALID,163.578,VALID,0,VALID,25.8823,VALID,25,VALID,0,
2011-04-03, 02:01:05,VALID,1002.19,VALID,0,INVALID,163.571,VALID,0,VALID,25.8629,VALID,25,VALID,0,
2011-04-03, 02:02:05,VALID,1002.17,VALID,0,INVALID,163.594,VALID,0,VALID,25.8843,VALID,25,VALID,0,
2011-04-03, 02:03:05,VALID,1002.18,VALID,0,INVALID,163.594,VALID,0,VALID,25.8434,VALID,25,VALID,0,
2011-04-03, 02:04:05,VALID,1002.16,VALID,0,INVALID,163.578,VALID,0,VALID,25.8239,VALID,25,VALID,0,
2011-04-03, 02:05:05,VALID,1002.16,VALID,0,INVALID,163.586,VALID,0,VALID,25.8259,VALID,25,VALID,0.00117188,
2011-04-03, 02:06:05,VALID,1002.14,VALID,0,INVALID,163.578,VALID,0,VALID,25.8044,VALID,25,VALID,0.0738281,
2011-04-03, 02:07:05,VALID,1002.08,VALID,0,INVALID,163.586,VALID,0,VALID,25.785,VALID,25,VALID,0,
2011-04-03, 02:08:05,VALID,1002.09,VALID,0,INVALID,163.601,VALID,0,VALID,25.7655,VALID,25,VALID,0.00195313,
2011-04-03, 02:09:05,VALID,1002.06,VALID,0,INVALID,163.609,VALID,0.100563,VALID,25.7674,VALID,25,VALID,0.370703,
2011-04-03, 02:10:05,VALID,1002.04,VALID,0,INVALID,163.586,VALID,0.100563,VALID,25.746,VALID,25,VALID,0.425781,
2011-04-03, 02:11:05,VALID,1002.07,VALID,0,INVALID,163.601,VALID,0,VALID,25.7265,VALID,25,VALID,0.231641,
2011-04-03, 02:12:05,VALID,1002.07,VALID,0,INVALID,163.609,VALID,0,VALID,25.7285,VALID,25,VALID,0,
2011-04-03, 02:13:05,VALID,1002.07,VALID,0,INVALID,163.594,VALID,0.100563,VALID,25.7071,VALID,25,VALID,0,
2011-04-03, 02:14:05,VALID,1002.08,VALID,0,INVALID,163.609,VALID,0.100563,VALID,25.6662,VALID,25,VALID,0,
2011-04-03, 02:15:05,VALID,1002.11,VALID,0,INVALID,163.609,VALID,0,VALID,25.6876,VALID,25,VALID,0,
2011-04-03, 02:16:05,VALID,1002.12,VALID,0,INVALID,163.586,VALID,0.100563,VALID,25.6467,VALID,25,VALID,0,
2011-04-03, 02:17:05,VALID,1002.15,VALID,0,INVALID,163.609,VALID,0.100563,VALID,25.6681,VALID,25,VALID,0,
2011-04-03, 02:18:05,VALID,1002.16,VALID,0,INVALID,163.632,VALID,0.100563,VALID,25.6486,VALID,25,VALID,0,
2011-04-03, 02:19:05,VALID,1002.14,VALID,0,INVALID,163.601,VALID,0,VALID,25.6681,VALID,25,VALID,0.113281,
2011-04-03, 02:20:05,VALID,1002.11,VALID,0,INVALID,163.601,VALID,0,VALID,25.6486,VALID,25,VALID,0.317969,
2011-04-03, 02:21:05,VALID,1002.1,VALID,0,INVALID,163.594,VALID,0,VALID,25.6292,VALID,25,VALID,0.483594,
2011-04-03, 02:22:05,VALID,1002.14,VALID,0,INVALID,163.594,VALID,0,VALID,25.6272,VALID,25,VALID,0.325781,
2011-04-03, 02:23:05,VALID,1002.41,VALID,0,INVALID,163.617,VALID,0.100563,VALID,25.6272,VALID,258,VALID,0.879297,
2011-04-03, 02:24:05,VALID,1003.09,VALID,0,INVALID,163.594,VALID,0,VALID,25.6681,VALID,220,VALID,3.32813,
2011-04-03, 02:25:05,VALID,1003.18,VALID,0,INVALID,163.594,VALID,0.100563,VALID,25.6272,VALID,253,VALID,2.40273,
2011-04-03, 02:26:05,VALID,1003.31,VALID,0,VALID,93.4919,VALID,0,VALID,25.4539,VALID,249,VALID,4.69648,
2011-04-03, 02:27:05,VALID,1003.27,VALID,0,VALID,83.8109,VALID,0,VALID,25.4909,VALID,260,VALID,3.91016,
2011-04-03, 02:28:05,VALID,1003.37,VALID,0,VALID,82.6742,VALID,0,VALID,25.3741,VALID,237,VALID,3.52383,
2011-04-03, 02:29:05,VALID,1003.32,VALID,0,VALID,84.8637,VALID,0.100563,VALID,25.2202,VALID,279,VALID,2.32656,
2011-04-03, 02:30:05,VALID,1003.37,VALID,0,VALID,87.0684,VALID,0,VALID,25.0274,VALID,248,VALID,2.13516,
2011-04-03, 02:31:05,VALID,1003.37,VALID,0,VALID,88.2356,VALID,0,VALID,24.7937,VALID,247,VALID,3.65586,
2011-04-03, 02:32:05,VALID,1003.47,VALID,0,VALID,92.5917,VALID,0.100563,VALID,24.4396,VALID,264,VALID,1.81641,
2011-04-03, 02:33:05,VALID,1003.43,VALID,0,VALID,95.422,VALID,0,VALID,24.1494,VALID,262,VALID,2.99414,
2011-04-03, 02:34:05,VALID,1003.5,VALID,0,VALID,100.175,VALID,0,VALID,23.7991,VALID,221,VALID,2.82383,
2011-04-03, 02:35:05,VALID,1003.47,VALID,0,INVALID,127.852,VALID,0,VALID,23.4877,VALID,220,VALID,2.01484,
2011-04-03, 02:36:05,VALID,1003.51,VALID,0,INVALID,163.731,VALID,0,VALID,23.2754,VALID,243,VALID,2.20742,
2011-04-03, 02:37:05,VALID,1003.46,VALID,0,INVALID,163.8,VALID,0,VALID,23.079,VALID,239,VALID,3.12891,
2011-04-03, 02:38:05,VALID,1003.37,VALID,0,INVALID,163.8,VALID,0.100563,VALID,22.9817,VALID,296,VALID,2.98789,
2011-04-03, 02:39:05,VALID,1003.29,VALID,0,INVALID,163.83,VALID,0.100563,VALID,22.9039,VALID,281,VALID,2.56172,
2011-04-03, 02:40:04,VALID,1003.22,VALID,0,INVALID,163.815,VALID,0.100563,VALID,22.8649,VALID,276,VALID,1.40586,
2011-04-03, 02:41:04,VALID,1003.08,VALID,0.5,INVALID,163.807,VALID,0,VALID,22.826,VALID,294,VALID,1.73242,
2011-04-03, 02:42:04,VALID,1002.99,VALID,0,INVALID,163.868,VALID,0,VALID,22.8066,VALID,297,VALID,1.56289,
2011-04-03, 02:43:04,VALID,1002.93,VALID,0,INVALID,163.838,VALID,0,VALID,22.7659,VALID,347,VALID,0.6625,
2011-04-03, 02:44:04,VALID,1002.94,VALID,0,INVALID,163.83,VALID,0.100563,VALID,22.7677,VALID,298,VALID,0.86875,
2011-04-03, 02:45:04,VALID,1002.91,VALID,0,INVALID,163.823,VALID,0.100563,VALID,22.7482,VALID,258,VALID,1.62188,
2011-04-03, 02:46:04,VALID,1002.89,VALID,0,INVALID,163.815,VALID,0.100563,VALID,22.7659,VALID,339,VALID,1.49492,
2011-04-03, 02:47:04,VALID,1002.9,VALID,0,INVALID,163.823,VALID,0.100563,VALID,22.8066,VALID,233,VALID,0.566016,
2011-04-03, 02:48:04,VALID,1002.83,VALID,0,INVALID,163.823,VALID,0,VALID,22.8632,VALID,295,VALID,1.27305,
2011-04-03, 02:49:04,VALID,1002.9,VALID,0,INVALID,163.807,VALID,0.100563,VALID,22.9817,VALID,269,VALID,1.19375,
2011-04-03, 02:50:04,VALID,1002.84,VALID,0,INVALID,163.807,VALID,0.100563,VALID,23.0772,VALID,273,VALID,2.06328,
2011-04-03, 02:51:04,VALID,1002.94,VALID,0,INVALID,154.34,VALID,0.100563,VALID,23.2559,VALID,293,VALID,1.83594,
2011-04-03, 02:52:04,VALID,1002.96,VALID,0,INVALID,117.386,VALID,0.100563,VALID,23.332,VALID,290,VALID,2.48594,
2011-04-03, 02:53:04,VALID,1002.92,VALID,0,INVALID,122.154,VALID,0.100563,VALID,23.3886,VALID,279,VALID,1.42227,
2011-04-03, 02:54:04,VALID,1002.92,VALID,0,INVALID,112.511,VALID,0.100563,VALID,23.408,VALID,287,VALID,1.92813,
2011-04-03, 02:55:04,VALID,1002.86,VALID,0,INVALID,115.509,VALID,0.100563,VALID,23.4487,VALID,288,VALID,1.18438,
2011-04-03, 02:56:04,VALID,1002.89,VALID,0,INVALID,115.974,VALID,0.100563,VALID,23.4275,VALID,276,VALID,1.41133,
2011-04-03, 02:57:04,VALID,1002.89,VALID,0,INVALID,114.212,VALID,0.100563,VALID,23.447,VALID,312,VALID,1.79883,
2011-04-03, 02:58:04,VALID,1002.83,VALID,0,INVALID,115.028,VALID,0.100563,VALID,23.4877,VALID,321,VALID,0.664063,
2011-04-03, 02:59:04,VALID,1002.7,VALID,0,INVALID,114.914,VALID,0.100563,VALID,23.4859,VALID,282,VALID,0.905859,
2011-04-03, 03:00:04,VALID,1002.63,VALID,0,VALID,104,VALID,0,VALID,23.5673,VALID,244,VALID,0.711719,
2011-04-03, 03:01:04,VALID,1002.6,VALID,0,VALID,104,VALID,0,VALID,23.5266,VALID,184,VALID,0.644141,
2011-04-03, 03:02:04,VALID,1002.53,VALID,0,VALID,104,VALID,0,VALID,23.546,VALID,238,VALID,0.896484,
2011-04-03, 03:03:04,VALID,1002.47,VALID,0,VALID,104,VALID,0,VALID,23.5443,VALID,240,VALID,0.671875,
2011-04-03, 03:04:04,VALID,1002.48,VALID,0,VALID,104,VALID,0,VALID,23.5655,VALID,213,VALID,0.647656,
2011-04-03, 03:05:04,VALID,1002.43,VALID,0,VALID,100.709,VALID,0,VALID,23.6044,VALID,147,VALID,1.44844,
2011-04-03, 03:06:04,VALID,1002.4,VALID,0,VALID,99.4577,VALID,0,VALID,23.6434,VALID,179,VALID,1.00352,
2011-04-03, 03:07:04,VALID,1002.37,VALID,0,VALID,99.4425,VALID,0,VALID,23.6823,VALID,228,VALID,1.08047,
2011-04-03, 03:08:04,VALID,1002.37,VALID,0,VALID,98.0082,VALID,0,VALID,23.7017,VALID,245,VALID,1.39375,
2011-04-03, 03:09:04,VALID,1002.31,VALID,0,VALID,96.2154,VALID,0,VALID,23.7991,VALID,233,VALID,2.32148,
2011-04-03, 03:10:04,VALID,1002.26,VALID,0,VALID,98.527,VALID,0,VALID,23.8769,VALID,248,VALID,0.651953,
2011-04-03, 03:11:04,VALID,1002.22,VALID,0,VALID,97.4284,VALID,0,VALID,23.8964,VALID,249,VALID,0.438281,
2011-04-03, 03:12:04,VALID,1002.16,VALID,0,VALID,96.8715,VALID,0.100563,VALID,23.8751,VALID,226,VALID,0.759375,
2011-04-03, 03:13:04,VALID,1002.14,VALID,0,VALID,94.8117,VALID,0,VALID,23.8556,VALID,284,VALID,1.25977,
2011-04-03, 03:14:04,VALID,1002.11,VALID,0,VALID,94.4227,VALID,0.100563,VALID,23.8751,VALID,294,VALID,0.959766,
2011-04-03, 03:15:04,VALID,1002.09,VALID,0,VALID,93.347,VALID,0.100563,VALID,23.9353,VALID,314,VALID,1.17305,
2011-04-03, 03:16:04,VALID,1002.01,VALID,0,VALID,95.5288,VALID,0,VALID,23.9548,VALID,354,VALID,0.151172,
2011-04-03, 03:17:04,VALID,1001.95,VALID,0,VALID,94.6515,VALID,0.100563,VALID,23.9353,VALID,269,VALID,0.246875,
2011-04-03, 03:18:04,VALID,1001.92,VALID,0,VALID,94.3387,VALID,0,VALID,23.8946,VALID,269,VALID,0.0890625,
2011-04-03, 03:19:04,VALID,1001.91,VALID,0,VALID,91.249,VALID,0.100563,VALID,23.8964,VALID,299,VALID,1.39961,
2011-04-03, 03:20:04,VALID,1001.93,VALID,0,VALID,90.9057,VALID,0,VALID,23.914,VALID,286,VALID,0.716797,
2011-04-03, 03:21:04,VALID,1001.94,VALID,0,VALID,91.5008,VALID,0.100563,VALID,23.9742,VALID,290,VALID,0.625,
2011-04-03, 03:22:04,VALID,1001.92,VALID,0,VALID,91.0812,VALID,0,VALID,23.9724,VALID,231,VALID,0.556641,
2011-04-03, 03:23:04,VALID,1001.92,VALID,0,VALID,91.3253,VALID,0.100563,VALID,24.0326,VALID,257,VALID,0.284766,
2011-04-03, 03:24:04,VALID,1001.94,VALID,0,VALID,92.6451,VALID,0,VALID,24.0132,VALID,257,VALID,0.123828,
2011-04-03, 03:25:04,VALID,1001.92,VALID,0,VALID,93.0876,VALID,0,VALID,23.9937,VALID,277,VALID,0.530859,
2011-04-03, 03:26:04,VALID,1001.92,VALID,0,VALID,93.2478,VALID,0.100563,VALID,23.9742,VALID,338,VALID,0.782812,
2011-04-03, 03:27:04,VALID,1001.89,VALID,0,VALID,95.2008,VALID,0,VALID,23.9548,VALID,354,VALID,0.727344,
2011-04-03, 03:28:04,VALID,1001.9,VALID,0,VALID,96.4214,VALID,0.100563,VALID,23.8362,VALID,355,VALID,0.842578,
2011-04-03, 03:29:04,VALID,1001.91,VALID,0,VALID,94.6363,VALID,0,VALID,23.7796,VALID,356,VALID,0.884766,
2011-04-03, 03:30:04,VALID,1001.9,VALID,0,VALID,95.567,VALID,0.100563,VALID,23.6805,VALID,354,VALID,0.810547,
2011-04-03, 03:31:04,VALID,1001.99,VALID,0,VALID,96.8944,VALID,0.100563,VALID,23.6823,VALID,4,VALID,0.482422,
2011-04-03, 03:32:04,VALID,1002.08,VALID,0,VALID,95.4754,VALID,0.100563,VALID,23.6221,VALID,4,VALID,0.172656,
2011-04-03, 03:33:04,VALID,1002.1,VALID,0,VALID,96.9936,VALID,0,VALID,23.6026,VALID,4,VALID,0.321484,
2011-04-03, 03:34:04,VALID,1002.18,VALID,0,VALID,104,VALID,0.100563,VALID,23.6628,VALID,121,VALID,0.870313,
2011-04-03, 03:35:04,VALID,1002.2,VALID,0,INVALID,136.351,VALID,0,VALID,23.6044,VALID,128,VALID,0.843359,
2011-04-03, 03:36:04,VALID,1002.23,VALID,0,INVALID,157.613,VALID,0,VALID,23.5266,VALID,119,VALID,0.390625,
2011-04-03, 03:37:04,VALID,1002.26,VALID,0,VALID,104,VALID,0,VALID,23.447,VALID,85,VALID,0.553906,
2011-04-03, 03:38:04,VALID,1002.31,VALID,0,INVALID,137.068,VALID,0,VALID,23.4487,VALID,83,VALID,0.402344,
2011-04-03, 03:39:04,VALID,1002.32,VALID,0,INVALID,160.023,VALID,0,VALID,23.4098,VALID,83,VALID,0.246484,
2011-04-03, 03:40:04,VALID,1002.34,VALID,0,INVALID,163.731,VALID,0,VALID,23.3497,VALID,6,VALID,0.467187,